{"data":{"norad_id":57225,"epoch":"2026-09-20T18:08:51.792000Z","epoch_age_seconds":98799,"freshness":"FRESH","line1":"1 57225U 23094H   26263.75615500 -.00000495  00000+0 -84640-5 0  9993","line2":"2 57225  43.0050   9.4897 0001545 268.9970  91.0705 15.27572823176949","mean_motion":15.27572823,"eccentricity":0.0001545,"inclination_deg":43.005,"raan_deg":9.4897,"arg_perigee_deg":268.997,"mean_anomaly_deg":91.0705,"bstar":-8.464e-6,"rev_number":17694,"period_min":94.267191607401,"perigee_km":482.01053007157,"apogee_km":484.13064321584,"semimajor_km":6861.2075866437,"source":"CELESTRAK","updated_at":"2026-09-21T09:00:33.585066Z"}}